Regional Weather Roundup
Issued by NWS

Home | Current Version | Previous Version | Text Only | Print | Product List | Glossary On
Versions: 1 2 3 4 5 6 7 8 9 10 11 12 13 14 15 16 17 18 19 20 21 22 23 24 25 26 27 28 29 30 31 32 33 34 35 36 37 38 39 40 41 42 43 44 45 46 47 48 49 50
000
ASUS43 KLSX 091810
RWRMO

WEATHER SUMMARY FOR MISSOURI
NATIONAL WEATHER SERVICE SPRINGFIELD MO
1200 PM CST TUE FEB 09 2016

NOTE: "FAIR" INDICATES FEW OR NO CLOUDS BELOW 12,000 FEET WITH NO
       SIGNIFICANT WEATHER AND/OR OBSTRUCTIONS TO VISIBILITY.
       CURRENT SKY AND/OR WEATHER CONDITIONS ARE NOT AVAILABLE FOR
       CHILLICOTHE AND FARMINGTON.

MOZ001>031-035>038-043-044-053-054-091900-
...NORTHERN AND WESTERN MISSOURI...

CITY           SKY/WX    TMP DP  RH WIND       PRES   REMARKS
KANSAS CTY INT MOSUNNY   26  10  50 NW15G26   30.19S WCI  14
6HR MIN TEMP:  16; 6HR MAX TEMP:  26;

KANSAS C DTWN  SUNNY     26   8  46 N17G26    30.20S WCI  13
6HR MIN TEMP:  19; 6HR MAX TEMP:  27;

LEE`S SUMMIT   SUNNY     25  10  53 NW17G26   30.19R WCI  12
6HR MIN TEMP:  17; 6HR MAX TEMP:  25;

ST JOSEPH      MOSUNNY   25   8  48 N21G32    30.23R WCI  11
6HR MIN TEMP:  14; 6HR MAX TEMP:  25;

CHILLICOTHE      N/A     22   8  55 NW16G24   30.18R WCI   8
6HR MIN TEMP:  16; 6HR MAX TEMP:  22;

KIRKSVILLE     FLURRIES  22   6  50 NW16G29   30.09R WCI   8
6HR MIN TEMP:  13; 6HR MAX TEMP:  22; 6HR PCP: TRACE;


$$
MOZ066>068-077>081-088>096-101>105-091900-
...SOUTHWEST MISSOURI...

CITY           SKY/WX    TMP DP  RH WIND       PRES   REMARKS
SPRINGFIELD    PTSUNNY   30   9  41 NW23G31   30.11R WCI  17
6HR MIN TEMP:  25; 6HR MAX TEMP:  31;

JOPLIN         SUNNY     35  10  35 NW17      30.20R WCI  25
6HR MIN TEMP:  27; 6HR MAX TEMP:  35;


$$
MOZ032>034-039>042-045>050-055>058-069>072-091900-
...CENTRAL MISSOURI...

CITY           SKY/WX    TMP DP  RH WIND       PRES   REMARKS
COLUMBIA       PTSUNNY   24   9  52 NW18G26   30.08S WCI  10
6HR MIN TEMP:  17; 6HR MAX TEMP:  24; 6HR PCP: TRACE;

JEFFERSON CITY CLOUDY    23  10  57 NW21G29   30.12R WCI   8
6HR MIN TEMP:  19; 6HR MAX TEMP:  23; 6HR PCP: TRACE;

ROLLA          FLURRIES  20  11  68 NW14G23   30.04R WCI   7
6HR MIN TEMP:  17; 6HR MAX TEMP:  20; 6HR PCP: TRACE;

SEDALIA        MOSUNNY   25  11  55 NW18G29   30.15S WCI  11
6HR MIN TEMP:  17; 6HR MAX TEMP:  25; 6HR PCP: TRACE;

WHITEMAN AFB   MOSUNNY   24   8  50 NW20G28   30.15R WCI  10
WARRENSBURG    SUNNY     27  10  50 NW14G28   30.18S WCI  15
OSAGE BEACH    PTSUNNY   25   7  46 NW10G18   30.11S WCI  15

$$
MOZ051-052-059>065-091900-
...EAST CENTRAL MISSOURI...

CITY           SKY/WX    TMP DP  RH WIND       PRES   REMARKS
ST LOUIS INTL  FLURRIES  21  10  63 NW17G24   30.02F WCI   7
6HR MIN TEMP:  19; 6HR MAX TEMP:  21; 6HR PCP: TRACE;

SPIRIT OF STL  CLOUDY    20  10  65 NW15G26   30.04S WCI   6
6HR MIN TEMP:  19; 6HR MAX TEMP:  21; 6HR PCP: TRACE;

ST CHARLES     CLOUDY    20  10  65 NW16G25   30.03S WCI   6
6HR MIN TEMP:  18; 6HR MAX TEMP:  20; 6HR PCP: TRACE;


$$
MOZ072>076-082>087-097>100-106>115-091900-
...SOUTH CENTRAL AND SOUTHEAST MISSOURI...

CITY           SKY/WX    TMP DP  RH WIND       PRES   REMARKS
CAPE GIRARDEAU CLOUDY    24  14  65 NW16      30.02S WCI  11
6HR MIN TEMP:  22; 6HR MAX TEMP:  24; 6HR PCP:  0.01;

FARMINGTON     FLURRIES  21  13  71 NW16      30.00S WCI   7
6HR MIN TEMP:  19; 6HR MAX TEMP:  21; 6HR PCP: TRACE;

POPLAR BLUFF   CLOUDY    27  11  51 NW20G26   30.03S WCI  13
6HR MIN TEMP:  27; 6HR MAX TEMP:  29; 6HR PCP: TRACE;

WEST PLAINS    CLOUDY    26   9  48 NW18G29   30.05R WCI  13
6HR MIN TEMP:  23; 6HR MAX TEMP:  27;


$$



USA.gov is the U.S. government's official web portal to all federal, state and local government web resources and services.